Vorticity
6 6 6 6 5 5 4 4 3 4 4 6 4 5 5 4 4 6 6 6 6 5 5 6 6 6 6 5 5 6 6 6 4 5 5 5 6 6
5 6 6 5 5 4 4 5 7 7 6 4 4 5 6 6 6 6 6 6 6 6 6 6 6 6 5 6 6 5 5 6 6 6 5 4 4 6
6 4 3 4 5 6 7 6 6 6 8 8 7 7 6 6 6 5 5 6 6 6 5 5 5 5 5 5 5 6 6 5 5 5 5 5 5 5
9 7 7 10 8 6 6 8 8 8 7 6 5 5 6 6 6 6 6 5 5 4 5 5 4 4 4 5 6 5 5 6 6 5 5 5 6 5
8 9 9 9 9 9 8 6 5 4 5 5 5 4 4 3 4 4 3 4 4 5 5 4 4 4 4 3 4 4 4 3 4 4 5 6 6 5
10 9 8 6 5 5 5 6 5 5 4 3 4 4 4 6 6 6 6 6 6 6 6 6 6 7 7 7 7 7 7 6 6 7 7 7 6 6
5 5 6 6 6 5 4 3 4 4 5 6 7 7 4 5 5 6 5 4 5 5 4 4 5 4 5 6 5 6 9 8 8 8 8 7 8 8
6 5 4 4 3 4 4 6 7 8 7 5 4 5 5 5 3 3 3 5 2 2 5 8 7 7 7 7 7 10 9 10 10 11 10 8 8 8
3 3 4 5 7 7 7 6 6 5 4 3 3 3 2 2 2 7 6 9 11 12 12 11 11 11 13 13 13 15 14 14 13 13 14 14 12 12
5 6 7 6 6 5 5 6 5 4 4 3 3 4 6 9 11 12 13 15 15 16 16 16 16 17 16 16 16 17 19 17 17 17 16 16 14 14
6 5 4 5 5 5 3 2 1 3 4 6 8 11 11 11 14 16 19 16 17 17 18 18 19 17 17 19 16 18 16 19 19 16 16 15 16 16
4 5 4 2 2 2 3 5 7 8 7 8 10 11 12 16 17 21 21 20 19 19 18 16 18 18 15 15 19 19 15 16 17 14 14 13 15 12
3 4 6 7 6 5 6 6 8 9 11 12 14 17 22 26 26 24 20 19 17 17 18 19 25 26 17 21 18 22 11 11 10 7 6 9 16 14
6 6 5 5 6 7 9 11 12 13 16 18 23 28 27 23 20 19 18 18 18 17 16 21 15 10 7 13 12 3 9 12 22 17 9 10 16 13
6 5 6 7 9 12 15 19 22 22 22 25 26 22 17 16 18 16 15 14 13 14 16 18 15 9 16 14 19 19 10 9 11 7 11 9 10 13
7 8 9 11 15 19 20 20 20 20 18 20 17 15 14 14 11 10 11 11 12 13 14 17 18 13 11 14 6 7 9 19 12 6 5 19 13 12
10 14 18 21 21 20 20 18 15 13 13 13 12 12 11 12 10 9 8 10 12 14 16 17 16 11 13 12 9 18 7 -0 6 3 13 15 5 9
17 22 20 19 19 16 12 10 10 10 11 11 11 11 12 11 11 9 6 8 10 16 18 19 19 17 11 9 16 13 9 22 14 11 12 2 12 8
16 14 14 10 7 6 7 7 7 6 6 7 8 8 9 9 9 10 8 6 12 17 24 21 17 10 16 20 13 7 13 12 9 6 3 16 14 6
9 6 4 4 6 6 6 6 6 7 7 7 7 8 8 10 11 12 11 8 11 21 23 22 13 10 15 4 7 14 13 9 15 5 17 11 6 9
4 6 7 8 9 10 10 10 10 9 10 10 11 11 12 13 13 12 11 9 14 22 19 16 10 10 10 16 5 9 10 11 8 15 10 6 8 9
9 10 10 12 12 13 14 15 15 14 15 17 18 18 18 18 17 14 12 15 16 22 17 12 7 9 4 13 12 7 7 15 16 9 8 6 6 9
15 16 18 19 20 21 23 25 26 27 25 24 23 23 19 18 16 14 15 17 13 11 10 10 9 9 7 11 13 11 10 16 15 6 7 9 8 7
Height
5760 5760 5761 5761 5762 5762 5762 5762 5761 5761 5760 5759 5758 5757 5757 5756 5755 5754 5753 5751 5750 5748 5748 5747 5746 5744 5742 5741 5740 5738 5736 5734 5733 5731 5729 5727 5726 5724
5751 5751 5751 5751 5752 5752 5752 5752 5752 5751 5752 5751 5749 5748 5747 5746 5745 5744 5742 5741 5739 5739 5737 5736 5735 5734 5732 5731 5730 5729 5727 5726 5724 5722 5720 5719 5718 5716
5740 5740 5741 5741 5740 5740 5740 5741 5741 5741 5741 5740 5739 5738 5736 5735 5734 5733 5732 5730 5729 5728 5726 5724 5723 5721 5720 5719 5719 5717 5716 5715 5713 5712 5711 5709 5708 5707
5728 5729 5728 5729 5728 5728 5728 5728 5728 5728 5728 5727 5726 5725 5724 5723 5722 5720 5719 5717 5716 5715 5713 5711 5709 5708 5707 5706 5705 5704 5703 5702 5701 5700 5700 5699 5697 5696
5717 5717 5717 5717 5716 5716 5716 5715 5715 5714 5714 5714 5712 5711 5710 5708 5707 5705 5704 5702 5700 5700 5699 5697 5695 5693 5692 5691 5690 5690 5689 5688 5688 5687 5686 5686 5685 5684
5704 5704 5704 5704 5704 5703 5703 5701 5701 5700 5699 5699 5698 5696 5694 5692 5691 5689 5688 5686 5685 5683 5682 5681 5679 5678 5675 5674 5673 5673 5673 5672 5672 5671 5670 5669 5669 5670
5691 5692 5691 5691 5690 5689 5689 5687 5686 5685 5684 5683 5682 5681 5678 5676 5674 5672 5671 5669 5668 5666 5664 5662 5662 5660 5657 5655 5655 5654 5654 5654 5653 5653 5653 5653 5653 5653
5677 5677 5677 5677 5676 5675 5674 5673 5672 5670 5669 5667 5666 5665 5662 5659 5656 5654 5651 5650 5648 5645 5643 5641 5640 5638 5635 5634 5635 5634 5634 5634 5634 5634 5634 5634 5634 5635
5663 5662 5662 5661 5660 5659 5658 5657 5655 5653 5651 5649 5649 5646 5643 5638 5636 5634 5630 5628 5626 5623 5620 5618 5617 5616 5614 5613 5614 5613 5613 5613 5614 5614 5615 5615 5616 5616
5647 5646 5645 5644 5643 5642 5640 5640 5637 5633 5630 5630 5628 5625 5622 5617 5614 5610 5606 5604 5602 5601 5597 5596 5594 5593 5593 5592 5593 5593 5593 5595 5596 5596 5596 5597 5597 5598
5629 5628 5627 5626 5623 5622 5622 5620 5617 5614 5608 5607 5606 5602 5598 5594 5590 5586 5583 5579 5579 5579 5575 5573 5574 5571 5573 5573 5574 5575 5576 5577 5578 5578 5579 5579 5580 5580
5610 5607 5606 5605 5601 5600 5599 5597 5595 5590 5585 5583 5581 5578 5573 5569 5566 5563 5560 5557 5556 5556 5554 5554 5554 5553 5555 5556 5557 5558 5560 5561 5562 5563 5564 5564 5564 5565
5589 5587 5584 5582 5580 5577 5574 5573 5570 5565 5561 5559 5556 5553 5549 5546 5543 5541 5538 5536 5536 5536 5535 5535 5536 5536 5538 5541 5542 5544 5545 5546 5547 5548 5550 5550 5550 5550
5568 5565 5562 5559 5556 5553 5550 5547 5544 5541 5539 5535 5531 5530 5526 5524 5522 5521 5520 5520 5520 5520 5519 5520 5522 5523 5524 5527 5529 5531 5532 5533 5534 5536 5537 5538 5538 5538
5545 5543 5540 5536 5532 5528 5523 5521 5518 5516 5514 5515 5513 5510 5507 5506 5506 5506 5506 5506 5505 5504 5504 5505 5507 5509 5511 5513 5515 5517 5519 5521 5523 5525 5526 5526 5527 5527
5519 5518 5516 5513 5509 5506 5501 5496 5494 5494 5493 5494 5495 5493 5492 5492 5491 5491 5491 5491 5490 5490 5490 5491 5493 5495 5497 5500 5503 5505 5507 5509 5512 5514 5515 5515 5516 5516
5493 5492 5490 5487 5485 5482 5478 5478 5475 5474 5475 5477 5477 5478 5476 5476 5476 5476 5476 5476 5476 5476 5476 5477 5479 5481 5485 5488 5491 5493 5496 5498 5501 5503 5504 5505 5506 5506
5468 5467 5466 5462 5461 5460 5458 5458 5459 5458 5457 5457 5459 5460 5461 5460 5460 5460 5461 5462 5462 5461 5461 5463 5466 5470 5473 5476 5479 5482 5484 5487 5489 5492 5494 5496 5497 5498
5441 5440 5441 5441 5439 5439 5437 5436 5438 5439 5438 5437 5440 5443 5444 5445 5443 5444 5445 5447 5447 5447 5447 5449 5453 5458 5461 5463 5466 5470 5474 5476 5479 5482 5484 5486 5487 5489
5416 5416 5416 5416 5416 5415 5415 5414 5415 5416 5417 5417 5419 5422 5424 5426 5427 5428 5430 5432 5432 5432 5433 5437 5442 5445 5448 5451 5455 5459 5463 5466 5469 5471 5474 5476 5478 5479
5392 5391 5389 5388 5388 5387 5388 5389 5390 5390 5391 5394 5397 5399 5403 5406 5409 5411 5413 5415 5416 5418 5421 5426 5430 5430 5433 5440 5445 5449 5452 5456 5459 5462 5464 5467 5469 5470
5363 5363 5361 5358 5357 5356 5356 5358 5361 5363 5365 5368 5372 5375 5380 5385 5389 5393 5396 5399 5402 5405 5409 5412 5415 5420 5426 5430 5432 5437 5441 5445 5449 5452 5455 5458 5460 5462
5332 5330 5328 5327 5325 5324 5324 5326 5328 5333 5337 5341 5346 5353 5358 5365 5371 5375 5379 5383 5387 5392 5395 5399 5403 5410 5414 5417 5420 5426 5431 5435 5439 5443 5446 5449 5451 5453